Regional Weather Roundup
Issued by NWS New Orleans/Baton Rouge, LA

Home | Current Version | Previous Version | Graphics & Text | Print | Product List | Glossary On
Versions: 1 2 3 4 5 6 7 8 9 10 11 12 13 14 15 16 17 18 19 20 21 22 23 24 25 26 27 28 29 30 31 32 33 34 35 36 37 38 39 40 41 42 43 44 45 46 47 48 49 50
309
ASUS44 KLIX 010410
RWRLIX
NEW ORLEANS REGIONAL WEATHER ROUNDUP
NATIONAL WEATHER SERVICE NEW ORLEANS LA
1100 PM CDT SUN AUG 31 2014

NOTE: "FAIR" INDICATES FEW OR NO CLOUDS BELOW 12,000 FEET WITH NO
      SIGNIFICANT WEATHER AND/OR OBSTRUCTIONS TO VISIBILITY.
      SKY/WX - SKY CONDITION AND SIGNIFICANT WEATHER.
      TMP - AIR TEMPERATURE.     DP    - DEWPOINT TEMPERATURE.
      RH  - RELATIVE HUMIDITY.   PRES  - PRESSURE.
      HI  - HEAT INDEX.          WCI   - WIND CHILL INDEX.

*  THESE STATIONS ARE NOT NWS OR FAA STATIONS AND ARE NOT UNDER
   NWS QUALITY CONTROL.

LAZ038-040-048-061>063-065>067-069-010500-
SOUTHEAST LOUISIANA

CITY           SKY/WX    TMP DP  RH WIND       PRES   REMARKS
N.O. AUDUBON     N/A     84  78  82 MISG        N/A  HX  96
N.O. INTL ARPT MOCLDY    82  75  79 SE8       30.05S
N.O. LAKEFRONT PTCLDY    82  77  84 SE8       30.06S
N.O. DOWNTOWN*   N/A     84  73  70 SE5       30.06S
SLIDELL        PTCLDY    80  75  84 SE5       30.05F
BATON ROUGE    PTCLDY    80  74  81 SE6       30.03S
BOOTHVILLE     CLEAR     83  78  85 SE6       30.07S
BELLE CHASSE   PTCLDY    83  75  77 SE6       30.04F
BOGALUSA*        N/A     80  74  82 CALM      30.07F
GALLIANO*      NOT AVBL
NEW ROADS*       N/A     79  75  87 SE5       30.03S
GONZALES*        N/A     80  79  98 CALM      30.03F
HAMMOND*       PTCLDY    81  75  83 CALM      30.06F
HOUMA*         PTCLDY    80  75  85 SE3       30.04S
PORT FOURCHON* NOT AVBL

$$

MSZ070-080>082-010500-
SOUTHERN MISSISSIPPI

CITY           SKY/WX    TMP DP  RH WIND       PRES   REMARKS
MCCOMB         PTCLDY    78  73  84 SE8       30.06S
GULFPORT       PTCLDY    83  76  79 S6        30.07S
BILOXI         PTCLDY    84  75  73 S8        30.07F
PASCAGOULA     PTCLDY    75  74  96 CALM      30.07F FOG

$$

COASTAL OBSERVATIONS
LAKE AND NEARSHORE STATIONS

STATION/POSITION TIME  TEMP    WIND        PRES    WAVE
                       AIR SEA DIR/SP/G            HT/PER
                 (UTC) (F)     (DEG/KT/KT) (MB)    (FT/S)
PASCAGOULA       0400   85     160/  4/  7 1018.0
WAVELAND YACHT   0400   85     160/ 11/ 14 1017.6
GRAND ISLE       0400   85 85  140/  9/ 14 1018.1
SOUTHWEST PASS   0400   85 90  140/ 13/ 15 1017.9
NEW CANAL        0400   83 82  130/  2/  5 1018.1
SHELL BEACH      0400   83 81  120/  7/  8 1017.7

OFFSHORE STATIONS

STATION/POSITION TIME  TEMP    WIND        PRES    WAVE
                       AIR SEA DIR/SP/G            HT/PER
                 (UTC) (F)     (DEG/KT/KT) (MB)    (FT/S)
64 S DAUPHIN ISL 0400   85 85  130/ 14/ 16 1018.5

$$




USA.gov is the U.S. government's official web portal to all federal, state and local government web resources and services.